Back to Top

Language: 

My Weather Underground Personal Weather Station Historical Data with Graphs...

Delerius Weather Station Historical Data
Daily Summary for May 14, 2017 Units:  English    Metric   Both
« Previous Day
Next Day »
Daily Weekly Monthly Yearly Custom
  High: Low: Average:
Temperature: 66.7 °F 47.7 °F 57 °F
Dew Point: 50.3 °F 40.0 °F 45.9 °F
Humidity: 95 % 39 % 69 %
Wind Speed: 14.0 mph 0.0 mph 5.6 mph
Wind Gust: 24.0 mph - -
Wind:- - SW
Pressure: 30.17 in 29.78 in -
Precipitation: 0.08 in    
Historical Graphs
 
 
Tabular Data for May 14, 2017
Time Temperature Dew Point Pressure Wind Wind Speed Wind Gust Humidity Rainfall Rate (Hourly) solar Conditions
00:02 53.1 °F 45.0 °F 29.78 in SSE 6.0 mph 9.0 mph 74 % 0.00 in 0 W/m2
00:07 53.1 °F 45.0 °F 29.78 in SSE 6.0 mph 9.0 mph 74 % 0.00 in 0 W/m2
00:12 53.1 °F 45.0 °F 29.78 in SSE 5.0 mph 9.0 mph 74 % 0.00 in 0 W/m2
00:17 52.9 °F 44.8 °F 29.78 in SSE 5.0 mph 10.0 mph 74 % 0.00 in 0 W/m2
00:22 52.9 °F 44.8 °F 29.79 in SSE 6.0 mph 10.0 mph 74 % 0.00 in 0 W/m2
00:27 52.9 °F 44.8 °F 29.79 in SSE 6.0 mph 10.0 mph 74 % 0.00 in 0 W/m2
00:31 53.1 °F 45.0 °F 29.79 in South 6.0 mph 11.0 mph 74 % 0.00 in 0 W/m2
00:36 53.1 °F 45.0 °F 29.79 in South 5.0 mph 11.0 mph 74 % 0.00 in 0 W/m2
00:42 53.1 °F 45.0 °F 29.79 in South 4.0 mph 8.0 mph 74 % 0.00 in 0 W/m2
00:46 53.1 °F 45.0 °F 29.79 in South 5.0 mph 8.0 mph 74 % 0.00 in 0 W/m2
00:51 53.1 °F 45.0 °F 29.79 in South 5.0 mph 9.0 mph 74 % 0.00 in 0 W/m2
00:56 53.1 °F 45.0 °F 29.79 in South 5.0 mph 10.0 mph 74 % 0.00 in 0 W/m2
01:01 53.2 °F 45.2 °F 29.79 in South 5.0 mph 10.0 mph 74 % 0.00 in 0 W/m2
01:07 53.2 °F 45.2 °F 29.79 in South 4.0 mph 8.0 mph 74 % 0.00 in 0 W/m2
01:12 53.4 °F 45.3 °F 29.79 in South 4.0 mph 8.0 mph 74 % 0.00 in 0 W/m2
01:17 53.4 °F 45.3 °F 29.79 in South 4.0 mph 7.0 mph 74 % 0.00 in 0 W/m2
01:22 53.4 °F 45.3 °F 29.79 in South 4.0 mph 7.0 mph 74 % 0.00 in 0 W/m2
01:27 53.6 °F 45.5 °F 29.79 in South 4.0 mph 8.0 mph 74 % 0.00 in 0 W/m2
01:32 53.6 °F 45.9 °F 29.79 in SSE 5.0 mph 9.0 mph 75 % 0.00 in 0 W/m2
01:37 53.6 °F 46.2 °F 29.79 in SSE 5.0 mph 9.0 mph 76 % 0.00 in 0 W/m2
01:42 53.6 °F 46.2 °F 29.79 in SSE 5.0 mph 8.0 mph 76 % 0.00 in 0 W/m2
01:47 53.4 °F 46.0 °F 29.79 in SSE 5.0 mph 8.0 mph 76 % 0.00 in 0 W/m2
01:52 53.4 °F 46.0 °F 29.79 in SSE 5.0 mph 8.0 mph 76 % 0.00 in 0 W/m2
01:57 53.6 °F 46.6 °F 29.79 in SSE 5.0 mph 10.0 mph 77 % 0.00 in 0 W/m2
02:02 53.6 °F 46.9 °F 29.79 in South 5.0 mph 10.0 mph 78 % 0.00 in 0 W/m2
02:07 53.6 °F 46.9 °F 29.79 in South 6.0 mph 10.0 mph 78 % 0.00 in 0 W/m2
02:12 53.6 °F 47.2 °F 29.79 in South 6.0 mph 10.0 mph 79 % 0.00 in 0 W/m2
02:17 53.6 °F 47.2 °F 29.79 in SSE 6.0 mph 10.0 mph 79 % 0.00 in 0 W/m2
02:22 53.6 °F 47.2 °F 29.79 in SSE 6.0 mph 12.0 mph 79 % 0.00 in 0 W/m2
02:27 53.6 °F 47.6 °F 29.79 in South 6.0 mph 12.0 mph 80 % 0.00 in 0 W/m2
02:32 53.6 °F 47.6 °F 29.79 in South 6.0 mph 10.0 mph 80 % 0.00 in 0 W/m2
02:37 53.8 °F 47.8 °F 29.79 in South 6.0 mph 13.0 mph 80 % 0.00 in 0 W/m2
02:42 53.8 °F 48.1 °F 29.79 in SSW 5.0 mph 13.0 mph 81 % 0.00 in 0 W/m2
02:43 53.8 °F 47.8 °F 29.79 in South 5.0 mph 11.0 mph 80 % 0.00 in 0 W/m2
02:48 53.6 °F 47.9 °F 29.79 in South 5.0 mph 12.0 mph 81 % 0.00 in 0 W/m2
02:53 53.8 °F 48.1 °F 29.80 in South 4.0 mph 12.0 mph 81 % 0.00 in 0 W/m2
02:58 53.6 °F 47.9 °F 29.80 in South 4.0 mph 11.0 mph 81 % 0.00 in 0 W/m2
03:03 53.6 °F 47.9 °F 29.80 in SSW 6.0 mph 11.0 mph 81 % 0.00 in 0 W/m2
03:08 53.6 °F 47.9 °F 29.80 in SSW 6.0 mph 11.0 mph 81 % 0.00 in 0 W/m2
03:13 53.6 °F 47.9 °F 29.80 in SSW 6.0 mph 13.0 mph 81 % 0.00 in 0 W/m2
03:18 53.6 °F 48.2 °F 29.80 in SSW 7.0 mph 13.0 mph 82 % 0.00 in 0 W/m2
03:23 53.4 °F 48.4 °F 29.80 in SSW 6.0 mph 12.0 mph 83 % 0.00 in 0 W/m2
03:28 53.2 °F 48.5 °F 29.80 in SSW 6.0 mph 11.0 mph 84 % 0.01 in 0 W/m2
03:33 53.1 °F 48.7 °F 29.80 in South 6.0 mph 12.0 mph 85 % 0.01 in 0 W/m2
03:38 52.7 °F 48.6 °F 29.80 in SSW 6.0 mph 12.0 mph 86 % 0.02 in 0 W/m2
03:43 52.3 °F 48.6 °F 29.80 in SSW 7.0 mph 11.0 mph 87 % 0.02 in 0 W/m2
03:49 52.2 °F 48.7 °F 29.80 in SSW 6.0 mph 11.0 mph 88 % 0.03 in 0 W/m2
03:54 52.2 °F 49.0 °F 29.80 in SSW 4.0 mph 11.0 mph 89 % 0.03 in 0 W/m2
03:59 52.0 °F 49.1 °F 29.80 in SSW 3.0 mph 8.0 mph 90 % 0.04 in 0 W/m2
04:04 52.0 °F 49.1 °F 29.80 in SSW 2.0 mph 6.0 mph 90 % 0.04 in 0 W/m2
04:09 51.8 °F 49.3 °F 29.80 in SSW 2.0 mph 8.0 mph 91 % 0.04 in 0 W/m2
04:14 51.8 °F 49.3 °F 29.81 in SSW 3.0 mph 8.0 mph 91 % 0.04 in 0 W/m2
04:19 51.6 °F 49.1 °F 29.81 in SSW 3.0 mph 8.0 mph 91 % 0.05 in 0 W/m2
04:24 51.6 °F 49.4 °F 29.81 in South 2.0 mph 7.0 mph 92 % 0.04 in 0 W/m2
04:29 51.6 °F 49.4 °F 29.81 in South 1.0 mph 5.0 mph 92 % 0.04 in 0 W/m2
04:34 51.6 °F 49.4 °F 29.81 in South 1.0 mph 5.0 mph 92 % 0.04 in 0 W/m2
04:39 51.6 °F 49.4 °F 29.81 in Calm   5.0 mph 92 % 0.05 in 0 W/m2
04:40 51.6 °F 49.4 °F 29.81 in Calm   6.0 mph 92 % 0.05 in 0 W/m2
04:45 51.6 °F 49.4 °F 29.82 in SSE 1.0 mph 6.0 mph 92 % 0.04 in 0 W/m2
04:50 51.6 °F 49.7 °F 29.82 in SSE 1.0 mph 6.0 mph 93 % 0.03 in 0 W/m2
04:55 51.6 °F 49.7 °F 29.82 in Calm   4.0 mph 93 % 0.03 in 0 W/m2
05:00 51.6 °F 49.7 °F 29.82 in SSE 1.0 mph 5.0 mph 93 % 0.02 in 0 W/m2
05:05 51.6 °F 49.7 °F 29.82 in South 2.0 mph 5.0 mph 93 % 0.02 in 0 W/m2
05:06 51.6 °F 49.7 °F 29.82 in South 2.0 mph 5.0 mph 93 % 0.03 in 0 W/m2
05:11 51.6 °F 49.7 °F 29.82 in SSW 2.0 mph 5.0 mph 93 % 0.03 in 0 W/m2
05:16 51.6 °F 49.7 °F 29.82 in SSW 2.0 mph 5.0 mph 93 % 0.02 in 0 W/m2
05:21 51.6 °F 49.9 °F 29.82 in SSW 1.0 mph 5.0 mph 94 % 0.02 in 0 W/m2
05:26 51.6 °F 49.9 °F 29.82 in SSW 2.0 mph 6.0 mph 94 % 0.02 in 5 W/m2
05:28 51.6 °F 49.9 °F 29.82 in SSW 2.0 mph 6.0 mph 94 % 0.03 in 5 W/m2
05:33 51.6 °F 49.9 °F 29.82 in SSW 2.0 mph 6.0 mph 94 % 0.02 in 7 W/m2
05:38 51.6 °F 49.9 °F 29.83 in SSW 2.0 mph 5.0 mph 94 % 0.02 in 5 W/m2
05:43 51.6 °F 49.9 °F 29.83 in SSW 2.0 mph 5.0 mph 94 % 0.02 in 7 W/m2
05:48 51.6 °F 49.9 °F 29.83 in SSW 1.0 mph 5.0 mph 94 % 0.02 in 7 W/m2
05:53 51.6 °F 49.9 °F 29.83 in SSW 1.0 mph 5.0 mph 94 % 0.02 in 0 W/m2
05:58 51.6 °F 49.9 °F 29.84 in SSW 1.0 mph 4.0 mph 94 % 0.02 in 0 W/m2
06:04 51.6 °F 49.9 °F 29.84 in SSW 1.0 mph 4.0 mph 94 % 0.02 in 5 W/m2
06:09 51.6 °F 49.9 °F 29.84 in SSW 1.0 mph 4.0 mph 94 % 0.01 in 11 W/m2
06:14 51.4 °F 49.8 °F 29.84 in SSW 1.0 mph 5.0 mph 94 % 0.01 in 14 W/m2
06:19 51.4 °F 50.1 °F 29.84 in SSW 1.0 mph 5.0 mph 95 % 0.01 in 18 W/m2
06:24 51.4 °F 50.1 °F 29.84 in Calm   2.0 mph 95 % 0.01 in 26 W/m2
06:29 51.4 °F 50.1 °F 29.85 in SSW 1.0 mph 4.0 mph 95 % 0.00 in 30 W/m2
06:34 51.3 °F 49.9 °F 29.85 in SSW 1.0 mph 4.0 mph 95 % 0.00 in 26 W/m2
06:39 51.3 °F 49.9 °F 29.85 in Calm   4.0 mph 95 % 0.00 in 32 W/m2
06:44 51.3 °F 49.6 °F 29.85 in SW 1.0 mph 6.0 mph 94 % 0.00 in 35 W/m2
06:49 51.1 °F 49.4 °F 29.86 in West 3.0 mph 8.0 mph 94 % 0.00 in 44 W/m2
06:54 51.1 °F 49.4 °F 29.86 in West 5.0 mph 9.0 mph 94 % 0.00 in 69 W/m2
06:59 50.9 °F 49.2 °F 29.86 in West 6.0 mph 9.0 mph 94 % 0.00 in 56 W/m2
07:04 50.9 °F 49.2 °F 29.87 in West 6.0 mph 9.0 mph 94 % 0.00 in 46 W/m2
07:09 50.9 °F 48.9 °F 29.87 in West 6.0 mph 10.0 mph 93 % 0.00 in 42 W/m2
07:14 50.9 °F 48.7 °F 29.88 in West 7.0 mph 12.0 mph 92 % 0.00 in 39 W/m2
07:19 50.9 °F 48.7 °F 29.88 in West 7.0 mph 12.0 mph 92 % 0.00 in 33 W/m2
07:24 51.1 °F 48.5 °F 29.87 in West 5.0 mph 11.0 mph 91 % 0.00 in 32 W/m2
07:29 51.1 °F 48.5 °F 29.88 in West 3.0 mph 8.0 mph 91 % 0.00 in 37 W/m2
07:35 51.1 °F 48.5 °F 29.87 in West 2.0 mph 7.0 mph 91 % 0.00 in 53 W/m2
07:40 51.1 °F 48.5 °F 29.87 in Calm   5.0 mph 91 % 0.00 in 56 W/m2
07:45 51.1 °F 48.5 °F 29.88 in Calm   5.0 mph 91 % 0.00 in 88 W/m2
07:50 51.3 °F 48.7 °F 29.88 in Calm   1.0 mph 91 % 0.00 in 114 W/m2
07:55 51.4 °F 49.2 °F 29.89 in West 1.0 mph 5.0 mph 92 % 0.00 in 135 W/m2
08:00 51.4 °F 49.2 °F 29.89 in West 2.0 mph 6.0 mph 92 % 0.00 in 121 W/m2
08:05 51.4 °F 48.9 °F 29.89 in WSW 3.0 mph 8.0 mph 91 % 0.00 in 121 W/m2
08:10 51.6 °F 49.1 °F 29.89 in WSW 2.0 mph 8.0 mph 91 % 0.00 in 135 W/m2
08:15 51.8 °F 49.0 °F 29.89 in WSW 1.0 mph 4.0 mph 90 % 0.00 in 176 W/m2
08:20 52.0 °F 49.1 °F 29.90 in West 1.0 mph 4.0 mph 90 % 0.00 in 301 W/m2
08:25 52.3 °F 49.5 °F 29.90 in West 1.0 mph 4.0 mph 90 % 0.00 in 309 W/m2
08:30 52.9 °F 50.0 °F 29.90 in WNW 1.0 mph 8.0 mph 90 % 0.00 in 309 W/m2
08:35 53.2 °F 49.5 °F 29.91 in West 3.0 mph 8.0 mph 87 % 0.00 in 462 W/m2
08:40 53.8 °F 49.7 °F 29.91 in WSW 5.0 mph 10.0 mph 86 % 0.00 in 464 W/m2
08:45 54.3 °F 50.2 °F 29.91 in WSW 6.0 mph 10.0 mph 86 % 0.00 in 461 W/m2
08:50 55.0 °F 50.3 °F 29.91 in West 6.0 mph 11.0 mph 84 % 0.00 in 475 W/m2
08:55 55.8 °F 50.3 °F 29.91 in West 5.0 mph 12.0 mph 82 % 0.00 in 513 W/m2
09:00 55.9 °F 49.5 °F 29.92 in West 7.0 mph 15.0 mph 79 % 0.00 in 524 W/m2
09:05 56.1 °F 49.7 °F 29.92 in West 8.0 mph 15.0 mph 79 % 0.00 in 548 W/m2
09:10 56.3 °F 48.8 °F 29.92 in West 9.0 mph 16.0 mph 76 % 0.00 in 571 W/m2
09:15 56.5 °F 48.3 °F 29.92 in West 10.0 mph 16.0 mph 74 % 0.00 in 568 W/m2
09:20 56.7 °F 48.1 °F 29.92 in West 10.0 mph 18.0 mph 73 % 0.00 in 582 W/m2
09:25 56.8 °F 47.9 °F 29.93 in West 11.0 mph 19.0 mph 72 % 0.00 in 596 W/m2
09:30 57.0 °F 47.3 °F 29.93 in West 12.0 mph 19.0 mph 70 % 0.00 in 628 W/m2
09:35 57.4 °F 48.1 °F 29.93 in West 12.0 mph 19.0 mph 71 % 0.00 in 649 W/m2
09:41 57.6 °F 47.8 °F 29.93 in West 11.0 mph 21.0 mph 70 % 0.00 in 141 W/m2
09:46 57.6 °F 47.8 °F 29.93 in West 11.0 mph 21.0 mph 70 % 0.00 in 141 W/m2
09:51 57.7 °F 48.0 °F 29.94 in West 11.0 mph 20.0 mph 70 % 0.00 in 701 W/m2
09:56 58.3 °F 48.2 °F 29.94 in West 11.0 mph 16.0 mph 69 % 0.00 in 744 W/m2
10:01 58.5 °F 47.9 °F 29.94 in West 11.0 mph 16.0 mph 68 % 0.00 in 165 W/m2
10:06 58.6 °F 48.5 °F 29.94 in West 11.0 mph 19.0 mph 69 % 0.00 in 717 W/m2
10:11 58.8 °F 48.3 °F 29.94 in West 11.0 mph 19.0 mph 68 % 0.00 in 754 W/m2
10:16 59.2 °F 48.2 °F 29.95 in West 11.0 mph 19.0 mph 67 % 0.00 in 745 W/m2
10:21 59.4 °F 48.0 °F 29.95 in West 11.0 mph 18.0 mph 66 % 0.00 in 807 W/m2
10:26 59.4 °F 47.6 °F 29.95 in West 11.0 mph 19.0 mph 65 % 0.00 in 130 W/m2
10:31 59.4 °F 48.0 °F 29.95 in West 11.0 mph 19.0 mph 66 % 0.00 in 788 W/m2
10:32 59.2 °F 47.8 °F 29.95 in West 11.0 mph 19.0 mph 66 % 0.00 in 788 W/m2
10:37 59.7 °F 48.3 °F 29.96 in West 10.0 mph 20.0 mph 66 % 0.00 in 849 W/m2
10:42 60.1 °F 47.9 °F 29.96 in WSW 11.0 mph 20.0 mph 64 % 0.00 in 830 W/m2
10:47 60.3 °F 47.6 °F 29.96 in WSW 13.0 mph 22.0 mph 63 % 0.00 in 860 W/m2
10:52 60.8 °F 47.7 °F 29.96 in West 13.0 mph 22.0 mph 62 % 0.00 in 949 W/m2
10:57 61.0 °F 47.9 °F 29.96 in West 12.0 mph 21.0 mph 62 % 0.00 in 202 W/m2
11:02 60.3 °F 46.8 °F 29.97 in West 11.0 mph 20.0 mph 61 % 0.00 in 220 W/m2
11:07 60.1 °F 46.6 °F 29.97 in West 12.0 mph 22.0 mph 61 % 0.00 in 893 W/m2
11:12 60.3 °F 47.2 °F 29.97 in WSW 12.0 mph 22.0 mph 62 % 0.00 in 875 W/m2
11:17 60.8 °F 46.8 °F 29.97 in WSW 10.0 mph 21.0 mph 60 % 0.00 in 904 W/m2
11:22 60.8 °F 45.9 °F 29.97 in West 11.0 mph 21.0 mph 58 % 0.00 in 893 W/m2
11:27 61.2 °F 46.7 °F 29.97 in West 11.0 mph 21.0 mph 59 % 0.00 in 313 W/m2
11:32 61.3 °F 46.4 °F 29.98 in West 9.0 mph 21.0 mph 58 % 0.00 in 979 W/m2
11:37 61.7 °F 47.2 °F 29.98 in WSW 8.0 mph 14.0 mph 59 % 0.00 in 932 W/m2
11:42 62.2 °F 47.7 °F 29.97 in WSW 8.0 mph 14.0 mph 59 % 0.00 in 949 W/m2
11:47 63.0 °F 47.9 °F 29.98 in WSW 8.0 mph 15.0 mph 58 % 0.00 in 981 W/m2
11:52 63.3 °F 46.9 °F 29.98 in West 8.0 mph 19.0 mph 55 % 0.00 in 209 W/m2
11:57 63.0 °F 47.0 °F 29.98 in West 9.0 mph 19.0 mph 56 % 0.00 in 262 W/m2
12:03 62.4 °F 46.5 °F 29.98 in West 8.0 mph 18.0 mph 56 % 0.00 in 387 W/m2
12:08 62.2 °F 46.8 °F 29.98 in WSW 9.0 mph 18.0 mph 57 % 0.00 in 1162 W/m2
12:13 62.4 °F 46.5 °F 29.99 in WSW 9.0 mph 20.0 mph 56 % 0.00 in 1032 W/m2
12:18 62.8 °F 46.4 °F 29.98 in WSW 10.0 mph 20.0 mph 55 % 0.00 in 211 W/m2
12:23 62.2 °F 46.3 °F 29.99 in WSW 10.0 mph 20.0 mph 56 % 0.00 in 241 W/m2
12:28 62.1 °F 46.6 °F 29.99 in West 10.0 mph 20.0 mph 57 % 0.00 in 297 W/m2
12:33 62.1 °F 47.6 °F 30.00 in West 10.0 mph 21.0 mph 59 % 0.00 in 1165 W/m2
12:38 62.8 °F 47.3 °F 30.00 in West 9.0 mph 23.0 mph 57 % 0.00 in 585 W/m2
12:43 63.0 °F 46.0 °F 30.00 in WSW 10.0 mph 23.0 mph 54 % 0.00 in 522 W/m2
12:48 62.2 °F 44.4 °F 30.01 in WSW 13.0 mph 23.0 mph 52 % 0.00 in 550 W/m2
12:53 61.9 °F 44.6 °F 30.01 in WSW 13.0 mph 23.0 mph 53 % 0.00 in 432 W/m2
12:58 61.9 °F 44.6 °F 30.01 in WSW 11.0 mph 20.0 mph 53 % 0.00 in 960 W/m2
13:03 62.4 °F 44.6 °F 30.01 in WSW 10.0 mph 16.0 mph 52 % 0.00 in 937 W/m2
13:08 63.1 °F 45.7 °F 30.01 in WSW 9.0 mph 16.0 mph 53 % 0.00 in 991 W/m2
13:13 63.5 °F 45.6 °F 30.01 in WSW 9.0 mph 19.0 mph 52 % 0.00 in 290 W/m2
13:18 63.5 °F 46.1 °F 30.01 in WSW 10.0 mph 19.0 mph 53 % 0.00 in 858 W/m2
13:23 63.3 °F 46.9 °F 30.02 in West 11.0 mph 19.0 mph 55 % 0.00 in 241 W/m2
13:28 62.8 °F 46.8 °F 30.02 in WNW 10.0 mph 18.0 mph 56 % 0.00 in 325 W/m2
13:33 62.8 °F 46.4 °F 30.01 in WNW 10.0 mph 18.0 mph 55 % 0.00 in 262 W/m2
13:38 62.4 °F 45.1 °F 30.02 in West 10.0 mph 19.0 mph 53 % 0.00 in 211 W/m2
13:39 62.2 °F 44.9 °F 30.02 in West 10.0 mph 19.0 mph 53 % 0.00 in 220 W/m2
13:44 61.9 °F 44.6 °F 30.02 in WSW 10.0 mph 19.0 mph 53 % 0.00 in 264 W/m2
13:49 61.5 °F 45.2 °F 30.02 in WSW 9.0 mph 15.0 mph 55 % 0.00 in 383 W/m2
13:54 62.1 °F 46.2 °F 30.02 in WSW 8.0 mph 15.0 mph 56 % 0.00 in 244 W/m2
13:59 62.4 °F 46.0 °F 30.02 in WSW 7.0 mph 13.0 mph 55 % 0.00 in 302 W/m2
14:04 62.8 °F 46.4 °F 30.02 in WSW 6.0 mph 11.0 mph 55 % 0.00 in 928 W/m2
14:09 63.1 °F 44.7 °F 30.02 in West 6.0 mph 11.0 mph 51 % 0.00 in 151 W/m2
14:14 63.7 °F 44.2 °F 30.02 in WNW 7.0 mph 15.0 mph 49 % 0.00 in 928 W/m2
14:19 64.8 °F 42.9 °F 30.02 in West 10.0 mph 22.0 mph 45 % 0.00 in 909 W/m2
14:24 65.1 °F 42.1 °F 30.02 in West 11.0 mph 22.0 mph 43 % 0.00 in 921 W/m2
14:29 65.7 °F 41.9 °F 30.02 in West 10.0 mph 18.0 mph 42 % 0.00 in 958 W/m2
14:34 66.6 °F 42.7 °F 30.02 in West 8.0 mph 15.0 mph 42 % 0.00 in 993 W/m2
14:40 66.7 °F 41.6 °F 30.02 in West 9.0 mph 15.0 mph 40 % 0.00 in 951 W/m2
14:45 66.7 °F 42.3 °F 30.02 in WSW 9.0 mph 16.0 mph 41 % 0.00 in 993 W/m2
14:50 66.6 °F 42.1 °F 30.03 in West 9.0 mph 18.0 mph 41 % 0.00 in 860 W/m2
14:55 66.7 °F 42.9 °F 30.03 in WSW 9.0 mph 18.0 mph 42 % 0.00 in 967 W/m2
15:00 66.2 °F 41.8 °F 30.03 in WSW 10.0 mph 18.0 mph 41 % 0.00 in 285 W/m2
15:05 65.5 °F 41.1 °F 30.03 in WSW 11.0 mph 18.0 mph 41 % 0.00 in 316 W/m2
15:10 65.1 °F 40.8 °F 30.03 in West 11.0 mph 22.0 mph 41 % 0.00 in 246 W/m2
15:15 64.8 °F 41.7 °F 30.04 in West 11.0 mph 22.0 mph 43 % 0.00 in 970 W/m2
15:20 64.9 °F 41.9 °F 30.04 in WSW 10.0 mph 19.0 mph 43 % 0.00 in 297 W/m2
15:25 65.1 °F 42.7 °F 30.04 in WSW 10.0 mph 19.0 mph 44 % 0.00 in 877 W/m2
15:30 65.8 °F 41.5 °F 30.04 in WSW 9.0 mph 16.0 mph 41 % 0.00 in 882 W/m2
15:35 65.8 °F 41.5 °F 30.04 in SW 10.0 mph 15.0 mph 41 % 0.00 in 309 W/m2
15:40 65.8 °F 42.1 °F 30.04 in SW 10.0 mph 15.0 mph 42 % 0.00 in 902 W/m2
15:45 66.4 °F 43.2 °F 30.04 in WSW 9.0 mph 15.0 mph 43 % 0.00 in 823 W/m2
15:50 66.6 °F 41.5 °F 30.04 in WSW 9.0 mph 21.0 mph 40 % 0.00 in 153 W/m2
15:55 65.7 °F 40.0 °F 30.04 in West 9.0 mph 21.0 mph 39 % 0.00 in 227 W/m2
16:00 65.1 °F 40.2 °F 30.05 in WSW 8.0 mph 19.0 mph 40 % 0.00 in 272 W/m2
16:05 65.1 °F 41.4 °F 30.05 in WSW 9.0 mph 19.0 mph 42 % 0.00 in 265 W/m2
16:10 64.9 °F 40.7 °F 30.05 in WSW 10.0 mph 16.0 mph 41 % 0.00 in 214 W/m2
16:15 64.8 °F 41.1 °F 30.05 in West 9.0 mph 16.0 mph 42 % 0.00 in 802 W/m2
16:20 65.3 °F 41.0 °F 30.05 in WSW 9.0 mph 15.0 mph 41 % 0.00 in 726 W/m2
16:25 66.0 °F 41.6 °F 30.05 in WSW 9.0 mph 18.0 mph 41 % 0.00 in 691 W/m2
16:30 66.2 °F 41.2 °F 30.05 in West 9.0 mph 18.0 mph 40 % 0.00 in 135 W/m2
16:35 65.7 °F 41.9 °F 30.05 in WSW 7.0 mph 15.0 mph 42 % 0.00 in 645 W/m2
16:40 65.7 °F 41.9 °F 30.05 in WSW 7.0 mph 11.0 mph 42 % 0.00 in 619 W/m2
16:45 66.2 °F 41.8 °F 30.05 in WSW 7.0 mph 14.0 mph 41 % 0.00 in 603 W/m2
16:48 66.4 °F 42.0 °F 30.05 in WSW 7.0 mph 14.0 mph 41 % 0.00 in 554 W/m2
16:53 66.6 °F 42.1 °F 30.05 in West 8.0 mph 14.0 mph 41 % 0.00 in 308 W/m2
16:58 66.7 °F 41.0 °F 30.05 in West 8.0 mph 13.0 mph 39 % 0.00 in 675 W/m2
17:03 66.6 °F 40.8 °F 30.06 in West 10.0 mph 18.0 mph 39 % 0.00 in 664 W/m2
17:08 65.7 °F 40.0 °F 30.06 in WSW 12.0 mph 20.0 mph 39 % 0.00 in 213 W/m2
17:13 64.8 °F 40.5 °F 30.07 in WSW 13.0 mph 21.0 mph 41 % 0.00 in 156 W/m2
17:18 63.1 °F 43.7 °F 30.07 in WSW 14.0 mph 23.0 mph 49 % 0.00 in 144 W/m2
17:23 61.7 °F 43.9 °F 30.07 in SW 14.0 mph 24.0 mph 52 % 0.00 in 118 W/m2
17:28 61.0 °F 44.2 °F 30.07 in SW 13.0 mph 24.0 mph 54 % 0.00 in 134 W/m2
17:33 60.3 °F 44.0 °F 30.07 in SW 13.0 mph 23.0 mph 55 % 0.00 in 149 W/m2
17:38 59.9 °F 44.2 °F 30.08 in WSW 13.0 mph 23.0 mph 56 % 0.00 in 142 W/m2
17:43 59.7 °F 43.5 °F 30.08 in WSW 12.0 mph 23.0 mph 55 % 0.00 in 135 W/m2
17:48 59.5 °F 43.8 °F 30.08 in SW 10.0 mph 18.0 mph 56 % 0.00 in 132 W/m2
17:53 59.4 °F 44.1 °F 30.08 in SW 9.0 mph 16.0 mph 57 % 0.00 in 135 W/m2
17:58 59.4 °F 44.1 °F 30.08 in SW 8.0 mph 18.0 mph 57 % 0.00 in 149 W/m2
18:03 59.4 °F 44.1 °F 30.08 in SW 7.0 mph 18.0 mph 57 % 0.00 in 163 W/m2
18:08 59.5 °F 43.8 °F 30.08 in SW 6.0 mph 12.0 mph 56 % 0.00 in 195 W/m2
18:13 59.9 °F 43.7 °F 30.08 in SW 5.0 mph 9.0 mph 55 % 0.00 in 443 W/m2
18:18 60.6 °F 43.9 °F 30.08 in SW 5.0 mph 9.0 mph 54 % 0.00 in 487 W/m2
18:23 61.5 °F 43.7 °F 30.08 in SW 6.0 mph 9.0 mph 52 % 0.00 in 432 W/m2
18:28 62.1 °F 44.2 °F 30.08 in SW 6.0 mph 10.0 mph 52 % 0.00 in 362 W/m2
18:33 62.8 °F 43.3 °F 30.08 in WSW 6.0 mph 10.0 mph 49 % 0.00 in 332 W/m2
18:38 63.1 °F 42.6 °F 30.08 in WSW 6.0 mph 10.0 mph 47 % 0.00 in 322 W/m2
18:40 63.3 °F 42.2 °F 30.08 in WSW 6.0 mph 10.0 mph 46 % 0.00 in 276 W/m2
18:45 63.1 °F 42.6 °F 30.08 in WSW 6.0 mph 11.0 mph 47 % 0.00 in 88 W/m2
18:50 62.6 °F 42.1 °F 30.08 in WSW 6.0 mph 11.0 mph 47 % 0.00 in 46 W/m2
18:55 62.2 °F 42.3 °F 30.09 in WSW 5.0 mph 9.0 mph 48 % 0.00 in 46 W/m2
19:00 61.9 °F 42.5 °F 30.09 in West 5.0 mph 10.0 mph 49 % 0.00 in 62 W/m2
19:05 61.3 °F 42.5 °F 30.09 in West 6.0 mph 12.0 mph 50 % 0.00 in 65 W/m2
19:10 61.0 °F 43.2 °F 30.10 in WSW 7.0 mph 12.0 mph 52 % 0.00 in 167 W/m2
19:15 61.0 °F 43.2 °F 30.10 in WSW 7.0 mph 12.0 mph 52 % 0.00 in 60 W/m2
19:20 60.6 °F 43.9 °F 30.10 in WSW 7.0 mph 13.0 mph 54 % 0.00 in 142 W/m2
19:25 60.4 °F 43.7 °F 30.10 in West 7.0 mph 13.0 mph 54 % 0.00 in 40 W/m2
19:30 60.3 °F 43.5 °F 30.10 in West 5.0 mph 10.0 mph 54 % 0.00 in 35 W/m2
19:35 60.1 °F 43.9 °F 30.10 in West 4.0 mph 9.0 mph 55 % 0.00 in 58 W/m2
19:40 59.7 °F 43.5 °F 30.10 in West 3.0 mph 7.0 mph 55 % 0.00 in 44 W/m2
19:45 59.5 °F 43.3 °F 30.11 in West 3.0 mph 7.0 mph 55 % 0.00 in 62 W/m2
19:50 59.5 °F 43.3 °F 30.11 in West 3.0 mph 7.0 mph 55 % 0.00 in 49 W/m2
19:55 59.4 °F 43.2 °F 30.11 in West 3.0 mph 7.0 mph 55 % 0.00 in 47 W/m2
20:00 59.2 °F 43.5 °F 30.11 in West 2.0 mph 7.0 mph 56 % 0.00 in 49 W/m2
20:05 59.2 °F 43.5 °F 30.11 in WSW 2.0 mph 5.0 mph 56 % 0.00 in 56 W/m2
20:10 59.0 °F 44.2 °F 30.12 in WSW 2.0 mph 5.0 mph 58 % 0.00 in 42 W/m2
20:16 58.8 °F 44.5 °F 30.12 in WSW 2.0 mph 6.0 mph 59 % 0.00 in 33 W/m2
20:21 58.6 °F 44.8 °F 30.12 in SW 2.0 mph 7.0 mph 60 % 0.00 in 26 W/m2
20:26 58.3 °F 44.9 °F 30.12 in SW 3.0 mph 7.0 mph 61 % 0.00 in 18 W/m2
20:31 58.1 °F 44.7 °F 30.12 in SW 3.0 mph 7.0 mph 61 % 0.00 in 12 W/m2
20:36 57.9 °F 45.0 °F 30.12 in SW 2.0 mph 6.0 mph 62 % 0.00 in 12 W/m2
20:41 57.7 °F 44.8 °F 30.12 in WSW 2.0 mph 6.0 mph 62 % 0.00 in 9 W/m2
20:42 57.6 °F 45.1 °F 30.12 in WSW 2.0 mph 6.0 mph 63 % 0.00 in 9 W/m2
20:47 57.4 °F 44.9 °F 30.12 in WSW 1.0 mph 4.0 mph 63 % 0.00 in 7 W/m2
20:52 57.2 °F 45.1 °F 30.13 in WSW 1.0 mph 2.0 mph 64 % 0.00 in 5 W/m2
20:57 56.8 °F 45.2 °F 30.13 in WSW 1.0 mph 2.0 mph 65 % 0.00 in 0 W/m2
21:02 56.7 °F 45.4 °F 30.13 in Calm   2.0 mph 66 % 0.00 in 0 W/m2
21:07 56.3 °F 45.5 °F 30.13 in Calm   1.0 mph 67 % 0.00 in 0 W/m2
21:12 55.9 °F 45.1 °F 30.14 in Calm   1.0 mph 67 % 0.00 in 0 W/m2
21:17 55.6 °F 45.2 °F 30.14 in Calm     68 % 0.00 in 0 W/m2
21:22 55.0 °F 44.7 °F 30.14 in Calm     68 % 0.00 in 0 W/m2
21:27 54.7 °F 44.7 °F 30.14 in Calm     69 % 0.00 in 0 W/m2
21:32 54.1 °F 44.6 °F 30.14 in Calm     70 % 0.00 in 0 W/m2
21:37 54.0 °F 44.8 °F 30.14 in Calm     71 % 0.00 in 0 W/m2
21:42 53.6 °F 44.4 °F 30.15 in Calm     71 % 0.00 in 0 W/m2
21:44 53.4 °F 44.6 °F 30.15 in Calm     72 % 0.00 in 0 W/m2
21:49 53.2 °F 44.4 °F 30.15 in Calm     72 % 0.00 in 0 W/m2
21:54 52.9 °F 44.5 °F 30.15 in Calm     73 % 0.00 in 0 W/m2
21:59 52.5 °F 44.1 °F 30.15 in Calm     73 % 0.00 in 0 W/m2
22:04 52.3 °F 44.3 °F 30.15 in Calm     74 % 0.00 in 0 W/m2
22:09 52.0 °F 43.9 °F 30.15 in Calm     74 % 0.00 in 0 W/m2
22:14 51.6 °F 44.0 °F 30.16 in Calm     75 % 0.00 in 0 W/m2
22:19 51.4 °F 44.1 °F 30.16 in Calm     76 % 0.00 in 0 W/m2
22:24 51.1 °F 44.1 °F 30.16 in Calm     77 % 0.00 in 0 W/m2
22:29 50.7 °F 43.8 °F 30.16 in Calm     77 % 0.00 in 0 W/m2
22:34 50.5 °F 43.9 °F 30.15 in Calm     78 % 0.00 in 0 W/m2
22:39 50.2 °F 43.9 °F 30.16 in Calm   2.0 mph 79 % 0.00 in 0 W/m2
22:44 49.8 °F 43.9 °F 30.16 in Calm   2.0 mph 80 % 0.00 in 0 W/m2
22:49 49.6 °F 44.0 °F 30.16 in WSW 1.0 mph 2.0 mph 81 % 0.00 in 0 W/m2
22:54 49.5 °F 43.9 °F 30.16 in WSW 1.0 mph 2.0 mph 81 % 0.00 in 0 W/m2
22:59 49.3 °F 43.7 °F 30.16 in WSW 1.0 mph 2.0 mph 81 % 0.00 in 0 W/m2
23:04 49.3 °F 44.0 °F 30.16 in Calm   2.0 mph 82 % 0.00 in 0 W/m2
23:09 49.3 °F 44.0 °F 30.16 in Calm   2.0 mph 82 % 0.00 in 0 W/m2
23:14 49.1 °F 43.8 °F 30.17 in Calm   1.0 mph 82 % 0.00 in 0 W/m2
23:16 49.1 °F 43.8 °F 30.16 in Calm   1.0 mph 82 % 0.00 in 0 W/m2
23:21 48.9 °F 43.7 °F 30.17 in Calm     82 % 0.00 in 0 W/m2
23:26 48.6 °F 43.3 °F 30.17 in Calm     82 % 0.00 in 0 W/m2
23:31 48.4 °F 43.1 °F 30.16 in Calm     82 % 0.00 in 0 W/m2
23:36 48.0 °F 43.1 °F 30.16 in Calm     83 % 0.00 in 0 W/m2
23:41 48.0 °F 43.4 °F 30.17 in Calm   1.0 mph 84 % 0.00 in 0 W/m2
23:46 47.8 °F 43.2 °F 30.17 in Calm   1.0 mph 84 % 0.00 in 0 W/m2
23:51 47.7 °F 43.1 °F 30.17 in Calm     84 % 0.00 in 0 W/m2
23:56 47.7 °F 43.4 °F 30.16 in Calm     85 % 0.00 in 0 W/m2
Delerius-Weather
Compliments of Weather Underground - 2.25 mb

Data updates at regular intervals.